Miscellaneous Local Product
Issued by NWS Hastings, NE

Home | Current Version | Previous Version | Graphics & Text | Print | Product List | Glossary Off
Versions: 1 2 3 4 5 6 7 8 9 10 11 12 13 14 15 16 17 18 19 20 21 22 23 24 25 26 27 28 29 30 31 32 33 34 35 36 37 38 39 40 41 42 43 44 45 46 47 48 49 50

898
AXUS43 KGID 230102
MISGRI

GID CWA HOURLY WEATHER ROUNDUP
NATIONAL WEATHER SERVICE HASTINGS NE
700 PM CST WED FEB 22 2017

NOTE: "FAIR" INDICATES FEW OR NO CLOUDS BELOW 12,000 FEET WITH NO
SIGNIFICANT WEATHER AND/OR OBSTRUCTIONS TO VISIBILITY.

...SOUTH CENTRAL NEBRASKA...

CITY           SKY/WX    TMP DP  RH WIND       PRES   REMARKS
GRAND ISLAND   CLEAR     49  34  56 N7        29.75R
HASTINGS       CLEAR     51  23  33 N6        29.74R
KEARNEY        CLEAR     55  21  26 N6        29.75R
ORD            CLEAR     50  30  46 N6        29.75R
YORK           CLEAR     50  32  50 N9        29.75R
AURORA         CLEAR     49  32  51 N9        29.74R
LEXINGTON      CLEAR     51  22  32 N7        29.76R
HOLDREGE       CLEAR     55  20  25 N5        29.74R
HEBRON         CLEAR     62  25  25 N8        29.71S

...NEBRASKA PANHANDLE...

CITY           SKY/WX    TMP DP  RH WIND       PRES   REMARKS
CHADRON        CLOUDY    43  31  62 NE17      29.83R
ALLIANCE       CLOUDY    47  15  27 N9        29.79R
SCOTTSBLUFF    CLOUDY    49  15  25 N8        29.80R
SIDNEY         CLEAR     42  15  33 N12       29.79S

...WESTERN AND NORTH CENTRAL NEBRASKA...

CITY           SKY/WX    TMP DP  RH WIND       PRES   REMARKS
VALENTINE      PTCLDY    45  34  65 N17G24    29.81R
AINSWORTH      CLEAR     46  31  56 N10       29.80R
ONEILL         CLEAR     48  33  55 N5        29.78R
BROKEN BOW     CLEAR     49  28  44 N7        29.75R
IMPERIAL       CLEAR     50  19  29 NE9       29.75S
NORTH PLATTE   CLEAR     47  21  35 N6        29.77R
MCCOOK         CLEAR     52  23  32 NE6       29.74S

...EASTERN NEBRASKA...

CITY           SKY/WX    TMP DP  RH WIND       PRES   REMARKS
NORFOLK        CLEAR     52  31  44 N12       29.76R
SO SIOUX CITY  CLEAR     54  41  61 N13       29.75R
TEKAMAH        CLEAR     52  35  52 NW9       29.74R
COLUMBUS       CLEAR     54  32  43 N9        29.76R
ALBION         CLEAR     52  30  43 N7        29.77R
OMAHA EPPLEY   CLEAR     59  33  37 NW13      29.72R
OFFUTT AFB     CLEAR     62  33  34 NW10      29.72R
MILLARD        CLEAR     64  35  33 NW9G17    29.73R
LINCOLN        CLEAR     57  34  41 N9        29.74R
NEBRASKA CITY  CLEAR     61  26  26 N13       29.71R
BEATRICE       CLEAR     57  31  38 N12       29.71R
FALLS CITY     CLEAR     62  38  40 N5        29.67R

...NORTHERN KANSAS...

CITY           SKY/WX    TMP DP  RH WIND       PRES   REMARKS
GOODLAND       CLEAR     48  21  34 E7        29.73F
HILL CITY      CLEAR     50  23  34 NE9       29.72S
NORTON         CLEAR     48  18  29 N9        29.72
PHILLIPSBURG   CLEAR     61  21  21 N5        29.72S
SMITH CENTER   CLEAR     55  25  30 N7        29.72S
HAYS             N/A     55  30  38 NE10      29.70F
RUSSELL        CLOUDY    61  31  32 CALM      29.70S
CONCORDIA      CLOUDY    64  30  27 N7        29.69S
SALINA         PTCLDY    66  34  30 W8        29.70R
TOPEKA         CLOUDY    59  41  51 CALM      29.66R



USA.gov is the U.S. government's official web portal to all federal, state and local government web resources and services.